Weather History for Westfield, MA

Change the Weather History Date:

Monday, July 15, 2013

  Actual Average Record
Temperature  
Mean Temperature 81 °F -  
Max Temperature 93 °F 80 °F 93 °F (2013)
Min Temperature 69 °F 58 °F 53 °F (1999)
Cooling Degree Days 16    
Growing Degree Days 31 (Base 50)    
Moisture  
Dew Point 69 °F    
Average Humidity 77    
Maximum Humidity 100    
Minimum Humidity 38    
Precipitation  
Precipitation 0.00 in - - ()
Sea Level Pressure  
Sea Level Pressure 30.18 in    
Wind  
Wind Speed 2 mph (NW)    
Max Wind Speed 12 mph    
Max Gust Speed -    
Visibility 6 miles    
Events Fog    
Averages and records for this station are not official NWS values.
T = Trace of Precipitation, MM = Missing Value Source: NWS Daily Summary

Daily Weather History Graph

Daily Weather History Graph

Search for Another Location

Airport:

Trip Planner

Search our weather history database for the weather conditions in past years. The results will help you decide how hot, cold, wet, or windy it might be!

Date:

Astronomy

Jul. 15, 2013 Rise Set
Actual Time 5:28 AM EDT 8:25 PM EDT
Civil Twilight 4:54 AM EDT 8:58 PM EDT
Nautical Twilight 4:12 AM EDT 9:40 PM EDT
Astronomical Twilight 3:22 AM EDT 10:30 PM EDT
Moon 12:53 PM EDT (7/15) No Moon Set
Length of Visible Light 16h 03m
Length of Day
14h 56m
Waxing Crescent, 45% of the Moon is Illuminated
Jul 15
Waxing Crescent
Jul 15
First Quarter
Jul 22
Full
Jul 29
Last Quarter
Aug 6
New

Hourly Weather History & Observations

Time (EDT) Temp. Heat Index Dew Point Humidity Pressure Visibility Wind Dir Wind Speed Gust Speed Precip Events Conditions
12:53 AM 73.0 °F - 72.0 °F 96% 30.21 in 9.0 mi Calm Calm - N/A   Scattered Clouds
1:53 AM 72.0 °F - 71.1 °F 97% 30.20 in 7.0 mi Calm Calm - N/A   Clear
2:33 AM 71.6 °F - 69.8 °F 94% 30.21 in 1.8 mi Calm Calm - N/A   Clear
2:53 AM 71.1 °F - 70.0 °F 96% 30.20 in 3.0 mi Calm Calm - N/A   Clear
2:58 AM 71.6 °F - 69.8 °F 94% 30.21 in 1.2 mi Calm Calm - N/A   Clear
3:05 AM 69.8 °F - 69.8 °F 100% 30.21 in 0.5 mi South 3.5 mph - N/A Fog Fog
3:11 AM 69.8 °F - 69.8 °F 100% 30.21 in 2.0 mi Calm Calm - N/A   Clear
3:26 AM 69.8 °F - 69.8 °F 100% 30.21 in 4.0 mi Calm Calm - N/A   Clear
3:46 AM 69.8 °F - 69.8 °F 100% 30.21 in 1.5 mi Calm Calm - N/A   Partly Cloudy
3:53 AM 70.0 °F - 69.1 °F 97% 30.20 in 1.2 mi Calm Calm - N/A   Partly Cloudy
4:01 AM 69.8 °F - 69.8 °F 100% 30.21 in 5.0 mi Calm Calm - N/A   Clear
4:25 AM 69.8 °F - 69.8 °F 100% 30.21 in 2.5 mi Calm Calm - N/A   Clear
4:33 AM 69.8 °F - 68.0 °F 94% 30.21 in 1.0 mi Calm Calm - N/A   Mist
4:40 AM 69.8 °F - 68.0 °F 94% 30.21 in 0.8 mi Calm Calm - N/A   Mist
4:44 AM 69.8 °F - 68.0 °F 94% 30.21 in 1.2 mi Calm Calm - N/A   Partly Cloudy
4:51 AM 69.8 °F - 68.0 °F 94% 30.21 in 3.0 mi Calm Calm - N/A   Clear
4:53 AM 69.1 °F - 68.0 °F 96% 30.21 in 5.0 mi Calm Calm - N/A   Clear
5:13 AM 69.8 °F - 68.0 °F 94% 30.21 in 4.0 mi Calm Calm - N/A   Partly Cloudy
5:53 AM 70.0 °F - 69.1 °F 97% 30.21 in 6.0 mi Calm Calm - N/A   Clear
6:53 AM 73.0 °F - 70.0 °F 90% 30.22 in 9.0 mi Calm Calm - N/A   Clear
7:53 AM 80.1 °F 83.8 °F 72.0 °F 76% 30.22 in 10.0 mi NW 3.5 mph - N/A   Clear
8:53 AM 84.0 °F 87.0 °F 68.0 °F 58% 30.21 in 10.0 mi NW 9.2 mph - N/A   Clear
9:53 AM 87.1 °F 90.6 °F 68.0 °F 53% 30.20 in 10.0 mi NNW 8.1 mph - N/A   Clear
10:53 AM 89.1 °F 92.1 °F 66.9 °F 48% 30.19 in 10.0 mi WNW 9.2 mph - N/A   Clear
11:53 AM 90.0 °F 93.6 °F 68.0 °F 48% 30.18 in 10.0 mi NNW 6.9 mph - N/A   Mostly Cloudy
12:53 PM 91.0 °F 93.0 °F 64.9 °F 42% 30.17 in 10.0 mi WNW 11.5 mph - N/A   Partly Cloudy
1:53 PM 91.9 °F 93.3 °F 64.0 °F 39% 30.16 in 10.0 mi NW 9.2 mph - N/A   Mostly Cloudy
2:53 PM 93.0 °F 95.0 °F 64.9 °F 39% 30.14 in 10.0 mi NW 9.2 mph - N/A   Scattered Clouds
3:53 PM 91.9 °F 94.1 °F 64.9 °F 41% 30.13 in 10.0 mi NW 11.5 mph - N/A   Partly Cloudy
4:53 PM 93.0 °F 94.6 °F 64.0 °F 38% 30.12 in 10.0 mi NNW 11.5 mph - N/A   Clear
5:53 PM 93.0 °F 94.6 °F 64.0 °F 38% 30.12 in 10.0 mi NNW 8.1 mph - N/A   Clear
6:53 PM 91.0 °F 93.8 °F 66.0 °F 44% 30.11 in 10.0 mi NW 8.1 mph - N/A   Clear
7:53 PM 87.1 °F 92.0 °F 70.0 °F 57% 30.12 in 10.0 mi NW 4.6 mph - N/A   Clear
8:53 PM 82.0 °F 86.7 °F 72.0 °F 71% 30.13 in 10.0 mi Calm Calm - N/A   Clear
9:53 PM 80.1 °F 83.6 °F 71.1 °F 74% 30.14 in 10.0 mi NW 3.5 mph - N/A   Clear
10:53 PM 75.0 °F - 71.1 °F 87% 30.14 in 10.0 mi Calm Calm - N/A   Clear
11:53 PM 79.0 °F - 69.1 °F 72% 30.14 in 10.0 mi NNW 6.9 mph - N/A   Clear